Weather History for Ingleside, TX

Change the Weather History Date:

Saturday, May 12, 2012

  Actual Average Record
Temperature  
Mean Temperature 82 °F -  
Max Temperature 89 °F - - ()
Min Temperature 74 °F - - ()
Cooling Degree Days 17    
Growing Degree Days 32 (Base 50)    
Moisture  
Dew Point 70 °F    
Average Humidity 71    
Maximum Humidity 91    
Minimum Humidity 42    
Precipitation  
Precipitation 0.00 in - - ()
Sea Level Pressure  
Sea Level Pressure 30.00 in    
Wind  
Wind Speed 8 mph (North)    
Max Wind Speed 14 mph    
Max Gust Speed 18 mph    
Visibility 9 miles    
Events      
T = Trace of Precipitation, MM = Missing Value Source: NWS Daily Summary

Daily Weather History Graph

Daily Weather History Graph

Search for Another Location

Airport:

Trip Planner

Search our weather history database for the weather conditions in past years. The results will help you decide how hot, cold, wet, or windy it might be!

Date:

Astronomy

May. 12, 2012 Rise Set
Actual Time 6:40 AM CDT 8:09 PM CDT
Civil Twilight 6:15 AM CDT 8:35 PM CDT
Nautical Twilight 5:45 AM CDT 9:05 PM CDT
Astronomical Twilight 5:13 AM CDT 9:37 PM CDT
Moon 1:34 AM CDT (5/12) 1:09 PM CDT (5/12)
Length of Visible Light 14h 19m
Length of Day
13h 29m
Waning Gibbous, 52% of the Moon is Illuminated
May 12
Waning Gibbous
May 12
Last Quarter
May 20
New
May 28
First Quarter
Jun 4
Full

Hourly Weather History & Observations

Time (CDT) Temp. Heat Index Dew Point Humidity Pressure Visibility Wind Dir Wind Speed Gust Speed Precip Events Conditions
12:15 AM 78.8 °F - 73.9 °F 85% 29.93 in 10.0 mi South 8.1 mph - N/A   Overcast
12:35 AM 79.2 °F - 74.3 °F 85% 29.94 in 10.0 mi South 11.5 mph - N/A   Overcast
12:55 AM 79.3 °F - 73.8 °F 83% 29.94 in 10.0 mi South 11.5 mph 16.1 mph N/A   Overcast
1:15 AM 79.0 °F - 73.9 °F 84% 29.94 in 10.0 mi South 6.9 mph - N/A   Mostly Cloudy
1:35 AM 78.6 °F - 73.9 °F 85% 29.94 in 10.0 mi South 8.1 mph - N/A   Mostly Cloudy
1:55 AM 78.4 °F - 74.3 °F 87% 29.94 in 10.0 mi South 6.9 mph - N/A   Mostly Cloudy
2:15 AM 78.4 °F - 74.3 °F 87% 29.93 in 10.0 mi South 9.2 mph - N/A   Mostly Cloudy
2:35 AM 78.6 °F - 74.5 °F 87% 29.94 in 10.0 mi South 8.1 mph - N/A   Overcast
2:55 AM 78.8 °F - 74.5 °F 87% 29.94 in 7.0 mi South 6.9 mph - N/A   Mostly Cloudy
3:15 AM 78.8 °F - 74.7 °F 87% 29.94 in 7.0 mi South 5.8 mph - N/A   Overcast
3:55 AM 78.4 °F - 74.5 °F 88% 29.95 in 10.0 mi South 5.8 mph - N/A   Mostly Cloudy
4:15 AM 78.6 °F - 75.0 °F 89% 29.95 in 7.0 mi SSW 6.9 mph - N/A   Overcast
4:35 AM 78.8 °F - 75.2 °F 89% 29.95 in 7.0 mi SW 4.6 mph - N/A   Mostly Cloudy
4:55 AM 78.8 °F - 75.2 °F 89% 29.95 in 7.0 mi SSW 4.6 mph - N/A   Mostly Cloudy
5:15 AM 78.6 °F - 75.2 °F 89% 29.96 in 7.0 mi SSW 6.9 mph - N/A   Mostly Cloudy
5:35 AM 78.4 °F - 75.2 °F 90% 29.96 in 7.0 mi SW 4.6 mph - N/A   Mostly Cloudy
5:55 AM 78.6 °F - 75.2 °F 89% 29.96 in 7.0 mi SW 5.8 mph - N/A   Overcast
6:15 AM 78.4 °F - 75.2 °F 90% 29.97 in 7.0 mi SW 8.1 mph - N/A   Overcast
6:35 AM 78.4 °F - 75.0 °F 89% 29.98 in 7.0 mi West 4.6 mph - N/A   Overcast
6:55 AM 78.1 °F - 75.0 °F 90% 30.00 in 5.0 mi WSW 5.8 mph - N/A   Mostly Cloudy
7:15 AM 78.1 °F - 75.0 °F 90% 30.01 in 4.0 mi WNW 4.6 mph - N/A   Mostly Cloudy
7:35 AM 77.5 °F - 74.8 °F 91% 30.02 in 4.0 mi NW 5.8 mph - N/A   Scattered Clouds
7:55 AM 77.7 °F - 74.8 °F 91% 30.02 in 5.0 mi NW 3.5 mph - N/A   Clear
8:35 AM 78.6 °F - 75.2 °F 89% 30.03 in 7.0 mi Calm Calm - N/A   Clear
8:55 AM 79.5 °F - 75.2 °F 87% 30.03 in 7.0 mi North 8.1 mph - N/A   Mostly Cloudy
9:15 AM 78.8 °F - 74.8 °F 88% 30.03 in 5.0 mi North 8.1 mph - N/A   Overcast
9:35 AM 78.8 °F - 74.7 °F 87% 30.03 in 7.0 mi North 8.1 mph - N/A   Overcast
9:55 AM 79.2 °F - 74.5 °F 86% 30.03 in 10.0 mi NNE 9.2 mph - N/A   Overcast
10:15 AM 81.0 °F 86.3 °F 74.1 °F 80% 30.03 in 10.0 mi North 10.4 mph - N/A   Overcast
10:35 AM 82.0 °F 87.7 °F 73.4 °F 75% 30.02 in 10.0 mi North 8.1 mph - N/A   Mostly Cloudy
10:55 AM 83.3 °F 89.3 °F 72.9 °F 71% 30.03 in 10.0 mi NNE 6.9 mph - N/A   Mostly Cloudy
11:15 AM 84.0 °F 89.6 °F 72.1 °F 67% 30.03 in 10.0 mi NNW 11.5 mph - N/A   Scattered Clouds
11:35 AM 84.4 °F 90.0 °F 71.8 °F 66% 30.02 in 10.0 mi North 6.9 mph - N/A   Clear
11:55 AM 85.5 °F 91.1 °F 71.6 °F 63% 30.03 in 10.0 mi NNW 6.9 mph - N/A   Scattered Clouds
12:15 PM 85.6 °F 91.5 °F 72.0 °F 63% 30.03 in 10.0 mi North 3.5 mph 9.2 mph N/A   Mostly Cloudy
12:35 PM 86.2 °F 91.8 °F 71.2 °F 61% 30.03 in 10.0 mi NNE 4.6 mph - N/A   Scattered Clouds
12:55 PM 87.3 °F 92.8 °F 70.9 °F 58% 30.02 in 10.0 mi North 9.2 mph - N/A   Scattered Clouds
1:15 PM 87.4 °F 92.3 °F 69.8 °F 56% 30.02 in 10.0 mi NE 8.1 mph - N/A   Scattered Clouds
1:35 PM 87.3 °F 91.2 °F 68.9 °F 54% 30.02 in 10.0 mi NNE 11.5 mph - N/A   Mostly Cloudy
1:55 PM 87.6 °F 91.5 °F 68.7 °F 53% 30.02 in 10.0 mi NNE 10.4 mph 18.4 mph N/A   Mostly Cloudy
2:15 PM 87.8 °F 90.7 °F 66.9 °F 50% 30.01 in 10.0 mi NNE 10.4 mph 17.3 mph N/A   Scattered Clouds
2:35 PM 88.9 °F 91.4 °F 66.4 °F 47% 30.00 in 10.0 mi NE 10.4 mph - N/A   Scattered Clouds
2:55 PM 89.2 °F 91.3 °F 65.7 °F 45% 30.00 in 10.0 mi NE 13.8 mph - N/A   Clear
3:15 PM 89.2 °F 90.9 °F 64.6 °F 44% 30.00 in 10.0 mi NNE 8.1 mph - N/A   Scattered Clouds
3:35 PM 89.6 °F 90.8 °F 64.0 °F 42% 29.99 in 10.0 mi NNE 9.2 mph - N/A   Scattered Clouds
3:55 PM 89.2 °F 90.2 °F 63.7 °F 42% 29.99 in 10.0 mi NNE 9.2 mph - N/A   Mostly Cloudy
4:15 PM 88.3 °F 89.5 °F 64.0 °F 44% 29.99 in 10.0 mi NE 9.2 mph - N/A   Mostly Cloudy
4:35 PM 87.3 °F 88.9 °F 64.6 °F 47% 29.99 in 10.0 mi NNE 10.4 mph - N/A   Mostly Cloudy
4:55 PM 88.2 °F 89.9 °F 65.1 °F 46% 29.98 in 10.0 mi NNE 10.4 mph 16.1 mph N/A   Mostly Cloudy
5:15 PM 87.4 °F 89.5 °F 65.7 °F 48% 29.99 in 10.0 mi NNE 8.1 mph - N/A   Mostly Cloudy
5:35 PM 87.8 °F 89.4 °F 64.4 °F 46% 29.99 in 10.0 mi North 10.4 mph - N/A   Mostly Cloudy
5:55 PM 88.3 °F 89.2 °F 63.5 °F 43% 29.99 in 10.0 mi North 11.5 mph 16.1 mph N/A   Mostly Cloudy
6:15 PM 87.6 °F 88.5 °F 63.5 °F 44% 29.98 in 10.0 mi NNE 10.4 mph - N/A   Scattered Clouds
6:35 PM 87.1 °F 88.3 °F 64.2 °F 46% 29.99 in 10.0 mi North 10.4 mph - N/A   Clear
6:55 PM 86.2 °F 87.6 °F 64.2 °F 48% 29.99 in 10.0 mi North 11.5 mph - N/A   Clear
7:15 PM 85.5 °F 86.8 °F 64.4 °F 49% 29.99 in 10.0 mi NNE 9.2 mph - N/A   Clear
7:35 PM 84.4 °F 86.3 °F 65.3 °F 53% 30.00 in 10.0 mi NNE 10.4 mph - N/A   Clear
7:55 PM 82.9 °F 84.8 °F 65.1 °F 55% 30.01 in 10.0 mi North 5.8 mph - N/A   Clear
8:15 PM 81.0 °F 83.2 °F 66.2 °F 61% 30.02 in 10.0 mi North 5.8 mph - N/A   Clear
8:35 PM 79.3 °F - 67.1 °F 66% 30.03 in 10.0 mi North 5.8 mph - N/A   Clear
8:55 PM 78.6 °F - 67.6 °F 69% 30.04 in 10.0 mi NNE 4.6 mph - N/A   Clear
9:15 PM 77.5 °F - 68.2 °F 73% 30.05 in 10.0 mi North 5.8 mph - N/A   Clear
9:35 PM 77.2 °F - 67.8 °F 73% 30.06 in 10.0 mi North 5.8 mph - N/A   Scattered Clouds
9:55 PM 76.6 °F - 68.2 °F 75% 30.06 in 10.0 mi NNE 3.5 mph - N/A   Scattered Clouds
10:15 PM 76.1 °F - 68.2 °F 76% 30.07 in 10.0 mi NE 3.5 mph - N/A   Clear
10:35 PM 76.1 °F - 68.7 °F 78% 30.07 in 10.0 mi NNE 4.6 mph - N/A   Clear
10:55 PM 75.7 °F - 68.9 °F 79% 30.07 in 10.0 mi NNE 4.6 mph - N/A   Clear
11:15 PM 75.9 °F - 68.9 °F 79% 30.08 in 10.0 mi North 4.6 mph - N/A   Mostly Cloudy
11:35 PM 75.4 °F - 68.9 °F 80% 30.09 in 10.0 mi North 5.8 mph - N/A   Scattered Clouds
11:55 PM 74.7 °F - 68.5 °F 81% 30.09 in 10.0 mi North 6.9 mph - N/A   Clear